Date String (YYYY-MM-DD hh:mm:ss) UTC,Instrument flags,absolute air pressure of the measurement (hPa),sample flow rate (lpm),inlet stack bypass flow (lpm),air temperature of the measurement (°C),ambient temperature measured by the external sensor (°C),aerosol sample conditioner tube jacket temperature (°C),OPC LED temperature (°C),internal box temperature (°C),relative humidity of the measurement (%),span deviation,mass concentration of particles derived from Lorenz-Mie calculation of OPC scattering (μg/m³),mass concentration of particles derived from Lorenz-Mie calculation of OPC scattering (μg/m³),mass concentration of particles derived from Lorenz-Mie calculation of OPC scattering (μg/m³)
DateTimeUTC,F1_M11,P_M11,Q1_M11,Q2_M11,T1_M11,T2_M11,T3_M11,T4_M11,T5_M11,U1_M11,ZSPAN_M11,X0_M11,X2_M11,X1_M11
2023-10-07 21:00:00,SystemResetWarning,0835.5,5.00,000.00,028.5,025.7,000.0,037.0,030.0,13.4,0000.0,0007.35,0002.27,0001.79
2023-10-07 21:01:00,SystemResetWarning,0835.7,5.00,000.00,028.5,026.1,000.0,037.0,030.1,13.5,0000.0,0007.43,0002.30,0001.80
2023-10-07 21:02:00,SystemResetWarning,0835.6,5.00,000.00,028.5,026.4,000.0,037.0,030.1,13.4,0000.0,0007.47,0002.31,0001.80
2023-10-07 21:03:00,SystemResetWarning,0835.5,5.00,000.00,028.5,026.7,000.0,037.0,030.2,13.6,0000.0,0006.91,0002.27,0001.82
2023-10-07 21:04:00,SystemResetWarning,0835.6,5.00,000.00,028.6,026.9,000.0,037.0,030.2,13.3,0000.0,0007.68,0002.24,0001.82
2023-10-07 21:05:00,SystemResetWarning,0835.5,4.99,000.00,028.6,027.1,000.0,037.0,030.3,13.5,0000.0,0007.75,0002.27,0001.83
2023-10-07 21:06:00,SystemResetWarning,0835.6,4.99,000.00,028.6,027.3,000.0,037.0,030.3,13.4,0000.0,0007.75,0002.28,0001.85
2023-10-07 21:07:00,SystemResetWarning,0835.7,5.00,000.00,028.7,027.5,000.0,037.0,030.4,13.2,0000.0,0007.82,0002.32,0001.86
2023-10-07 21:08:00,SystemResetWarning,0835.6,5.01,000.00,028.7,027.6,000.0,037.1,030.5,13.2,0000.0,0006.77,0002.30,0001.87
2023-10-07 21:09:00,SystemResetWarning,0835.6,5.00,000.00,028.8,027.7,000.0,037.1,030.5,13.0,0000.0,0006.61,0002.29,0001.88
2023-10-07 21:10:00,SystemResetWarning,0835.5,4.99,000.00,028.8,027.8,000.0,037.1,030.6,13.2,0000.0,0006.61,0002.28,0001.88
2023-10-07 21:11:00,SystemResetWarning,0835.7,5.00,000.00,028.8,027.9,000.0,037.1,030.6,13.5,0000.0,0005.36,0002.29,0001.88
2023-10-07 21:12:00,SystemResetWarning,0835.5,4.99,000.00,028.9,027.5,000.0,037.1,030.7,13.3,0000.0,0005.36,0002.27,0001.89
2023-10-07 21:13:00,SystemResetWarning,0835.5,5.00,000.00,028.8,025.9,000.0,037.1,030.5,13.3,0000.0,0006.53,0002.30,0001.88
2023-10-07 21:14:00,SystemResetWarning,0835.5,5.01,000.00,028.8,025.3,000.0,037.0,030.4,13.4,0000.0,0006.64,0002.32,0001.87
2023-10-07 21:15:00,SystemResetWarning,0835.5,5.02,000.00,028.7,025.4,000.0,037.0,030.2,13.2,0000.0,0005.33,0002.38,0001.88
2023-10-07 21:16:00,SystemResetWarning,0835.5,4.99,000.00,028.6,025.7,000.0,037.1,030.1,13.3,0000.0,0005.37,0002.43,0001.88
2023-10-07 21:17:00,SystemResetWarning,0835.5,4.99,000.00,028.6,026.1,000.0,037.1,030.2,13.2,0000.0,0005.45,0002.40,0001.88
2023-10-07 21:18:00,SystemResetWarning,0835.5,5.00,000.00,028.6,026.4,000.0,037.1,030.2,13.0,0000.0,0005.31,0002.36,0001.88
2023-10-07 21:19:00,SystemResetWarning,0835.5,5.01,000.00,028.7,026.7,000.0,037.1,030.3,13.1,0000.0,0005.24,0002.36,0001.87
2023-10-07 21:20:00,SystemResetWarning,0835.5,5.01,000.00,028.7,027.0,000.0,037.1,030.4,13.5,0000.0,0005.89,0002.35,0001.87
2023-10-07 21:21:00,SystemResetWarning,0835.5,5.00,000.00,028.7,027.2,000.0,037.1,030.4,13.2,0000.0,0005.86,0002.35,0001.86
2023-10-07 21:22:00,SystemResetWarning,0835.5,4.99,000.00,028.8,027.4,000.0,037.1,030.5,13.1,0000.0,0006.01,0002.36,0001.88
2023-10-07 21:23:00,SystemResetWarning,0835.5,4.99,000.00,028.8,027.6,000.0,037.1,030.5,13.2,0000.0,0006.29,0002.44,0001.89
2023-10-07 21:24:00,SystemResetWarning,0835.5,5.00,000.00,028.9,027.8,000.0,037.2,030.6,13.3,0000.0,0005.42,0002.42,0001.90
2023-10-07 21:25:00,SystemResetWarning,0835.5,5.00,000.00,028.9,027.2,000.0,037.2,030.6,13.2,0000.0,0005.17,0002.46,0001.92
2023-10-07 21:26:00,SystemResetWarning,0835.5,5.01,000.00,028.8,025.2,000.0,037.1,030.3,13.4,0000.0,0005.12,0002.47,0001.91
2023-10-07 21:27:00,SystemResetWarning,0835.5,5.00,000.00,028.7,024.3,000.0,037.0,030.2,13.6,0000.0,0005.09,0002.45,0001.90
2023-10-07 21:28:00,SystemResetWarning,0835.5,5.01,000.00,028.6,024.4,000.0,037.0,030.0,13.7,0000.0,0005.20,0002.47,0001.92
2023-10-07 21:29:00,SystemResetWarning,0835.5,5.01,000.00,028.5,024.8,000.0,037.0,029.9,13.8,0000.0,0006.07,0002.50,0001.93
2023-10-07 21:30:00,SystemResetWarning,0835.5,4.99,000.00,028.5,025.3,000.0,037.0,029.9,13.9,0000.0,0006.21,0002.55,0001.95
2023-10-07 21:31:00,SystemResetWarning,0835.4,5.00,000.00,028.5,025.7,000.0,037.0,030.0,14.0,0000.0,0005.80,0002.60,0001.97
2023-10-07 21:32:00,SystemResetWarning,0835.3,5.01,000.00,028.5,026.1,000.0,037.0,030.1,13.9,0000.0,0005.76,0002.62,0001.97
2023-10-07 21:33:00,SystemResetWarning,0835.4,5.00,000.00,028.5,026.5,000.0,037.0,030.1,14.1,0000.0,0005.75,0002.60,0001.96
2023-10-07 21:34:00,SystemResetWarning,0835.4,5.00,000.00,028.5,026.8,000.0,037.0,030.2,14.3,0000.0,0005.38,0002.50,0001.94
2023-10-07 21:35:00,SystemResetWarning,0835.4,4.99,000.00,028.6,027.0,000.0,037.0,030.2,14.2,0000.0,0005.15,0002.45,0001.93
2023-10-07 21:36:00,SystemResetWarning,0835.4,5.00,000.00,028.6,027.2,000.0,037.0,030.3,14.0,0000.0,0005.04,0002.40,0001.91
2023-10-07 21:37:00,SystemResetWarning,0835.4,5.00,000.00,028.6,027.4,000.0,037.0,030.4,14.0,0000.0,0005.11,0002.38,0001.91
2023-10-07 21:38:00,SystemResetWarning,0835.4,5.00,000.00,028.7,027.6,000.0,037.0,030.4,13.8,0000.0,0004.95,0002.33,0001.90
2023-10-07 21:39:00,SystemResetWarning,0835.5,5.00,000.00,028.7,027.7,000.0,037.1,030.5,13.9,0000.0,0005.73,0002.33,0001.89
2023-10-07 21:40:00,SystemResetWarning,0835.5,5.00,000.00,028.8,027.8,000.0,037.1,030.6,13.8,0000.0,0005.34,0002.31,0001.87
2023-10-07 21:41:00,SystemResetWarning,0835.4,4.98,000.00,028.8,027.2,000.0,037.1,030.6,13.7,0000.0,0005.24,0002.29,0001.86
2023-10-07 21:42:00,SystemResetWarning,0835.4,5.01,000.00,028.8,025.6,000.0,037.0,030.4,14.0,0000.0,0005.28,0002.26,0001.85
2023-10-07 21:43:00,SystemResetWarning,0835.3,5.01,000.00,028.7,025.3,000.0,037.0,030.3,14.0,0000.0,0005.29,0002.19,0001.84
2023-10-07 21:44:00,SystemResetWarning,0835.4,5.01,000.00,028.6,025.5,000.0,037.0,030.1,14.0,0000.0,0005.17,0002.18,0001.83
2023-10-07 21:45:00,SystemResetWarning,0835.3,5.00,000.00,028.6,025.8,000.0,037.0,030.1,13.8,0000.0,0005.78,0002.16,0001.82
2023-10-07 21:46:00,SystemResetWarning,0835.3,5.00,000.00,028.6,026.1,000.0,037.0,030.2,13.8,0000.0,0006.39,0002.20,0001.82
2023-10-07 21:47:00,SystemResetWarning,0835.2,5.00,000.00,028.6,026.5,000.0,037.0,030.2,13.9,0000.0,0006.48,0002.25,0001.83
2023-10-07 21:48:00,SystemResetWarning,0835.2,5.00,000.00,028.6,026.8,000.0,037.0,030.3,13.7,0000.0,0006.86,0002.28,0001.84
2023-10-07 21:49:00,SystemResetWarning,0835.2,5.00,000.00,028.7,027.0,000.0,037.0,030.4,13.7,0000.0,0007.06,0002.28,0001.84
2023-10-07 21:50:00,SystemResetWarning,0835.2,5.00,000.00,028.7,027.3,000.0,037.1,030.4,13.7,0000.0,0007.00,0002.28,0001.85
2023-10-07 21:51:00,SystemResetWarning,0835.4,5.00,000.00,028.7,027.4,000.0,037.1,030.5,13.8,0000.0,0006.61,0002.28,0001.87
2023-10-07 21:52:00,SystemResetWarning,0835.2,5.01,000.00,028.8,027.6,000.0,037.1,030.5,13.8,0000.0,0006.26,0002.30,0001.88
2023-10-07 21:53:00,SystemResetWarning,0835.2,4.98,000.00,028.8,026.5,000.0,037.1,030.5,13.7,0000.0,0007.51,0002.28,0001.88
2023-10-07 21:54:00,SystemResetWarning,0835.2,5.00,000.00,028.7,024.7,000.0,037.0,030.2,13.9,0000.0,0007.37,0002.26,0001.86
2023-10-07 21:55:00,SystemResetWarning,0835.3,5.02,000.00,028.6,024.2,000.0,036.9,030.0,13.8,0000.0,0007.37,0002.28,0001.85
2023-10-07 21:56:00,SystemResetWarning,0835.3,5.01,000.00,028.5,024.5,000.0,036.9,029.9,13.8,0000.0,0006.98,0002.30,0001.86
2023-10-07 21:57:00,SystemResetWarning,0835.2,5.00,000.00,028.4,024.9,000.0,036.9,029.8,13.9,0000.0,0006.25,0002.31,0001.87
2023-10-07 21:58:00,SystemResetWarning,0835.3,5.00,000.00,028.4,025.4,000.0,036.9,029.9,13.9,0000.0,0006.41,0002.31,0001.88
2023-10-07 21:59:00,SystemResetWarning,0835.3,5.00,000.00,028.4,025.8,000.0,036.9,029.9,13.9,0000.0,0006.30,0002.30,0001.87
